Met observations

Date (UTC) Wind direction m/s kts. Vis. * Weather * Cloud * Temperature (°C) Dew point (°C) Air pressure (Hp)
17-10 13:56 7 13 VIS 10 km SCT 2600ft 7.4 2.9 1014.6
17-10 13:26 7 14 VIS 10 km SCT 2600ft 7.2 2.8 1014.4
17-10 12:56 8 15 VIS 10 km SCT 2600ft 7.5 3.1 1014.1
17-10 12:26 5 10 VIS 10 km SCT 2600ft 7.6 2.5 1013.8
17-10 11:56 7 13 VIS 10 km SCT 2600ft 7.2 2.2 1013.5
17-10 11:26 6 12 VIS 10 km FEW 2000ft 7.2 2.0 1013.4
17-10 10:56 6 12 VIS 10 km FEW 2000ft 7.2 1.9 1013.2
17-10 10:26 7 14 VIS 10 km FEW 2000ft 6.6 1.8 1013.0
17-10 09:56 9 17 VIS 10 km FEW 2000ft 6.4 1.7 1012.1
17-10 09:26 9 17 VIS 10 km FEW 2000ft 6.2 1.5 1011.8
17-10 08:56 8 15 VIS 10 km FEW 2000ft 6.3 1.4 1011.7
17-10 08:26 7 14 VIS 10 km FEW 2000ft 5.8 0.9 1011.6
17-10 07:56 7 14 VIS 10 km FEW 2000ft 5.8 1.2 1011.0
17-10 07:26 5 10 VIS 10 km FEW 2000ft 5.8 1.2 1010.6
17-10 06:56 8 16 VIS 10 km FEW 2000ft 5.4 1.3 1010.3
17-10 06:26 8 15 VIS 10 km FEW 2000ft 5.7 1.3 1009.9
17-10 05:56 6 12 VIS 10 km FEW 2000ft 5.4 1.0 1009.6
17-10 05:26 7 13 VIS 10 km FEW 2000ft 6.0 1.0 1009.2
17-10 04:56 5 09 VIS 10 km FEW 2000ft 5.8 1.7 1009.0
17-10 04:26 6 12 VIS 10 km FEW 2000ft 6.4 2.3 1008.5
17-10 03:56 7 14 VIS 10 km FEW 2000ft 6.5 2.0 1008.3
17-10 03:26 10 19 VIS 10 km FEW 2000ft 6.3 2.2 1008.0
17-10 02:56 10 19 VIS 10 km FEW 2000ft 6.4 2.0 1007.8
17-10 02:26 8 16 VIS 10 km FEW 2000ft 6.0 1.9 1007.9
17-10 01:56 7 14 VIS 10 km FEW 2000ft 5.8 1.7 1008.2
17-10 01:26 3 06 VIS 10 km FEW 2000ft 6.2 0.7 1008.6
17-10 00:56 4 08 VIS 10 km FEW 2000ft 6.3 0.8 1008.5
17-10 00:26 1 02 VIS 10 km FEW 2000ft 4.7 0.8 1008.7
16-10 23:56 8 16 VIS 10 km FEW 2000ft 4.7 0.6 1009.1
16-10 23:26 5 10 VIS 10 km FEW 2000ft 4.5 1.3 1009.3
16-10 22:51 5 09 VIS 10 km FEW 2000ft 5.0 1.7 1009.8
16-10 22:26 2 03 VIS 10 km FEW 2000ft 4.7 2.3 1010.2
16-10 21:56 3 05 VIS 10 km FEW 2000ft 5.0 2.7 1010.6
16-10 21:26 4 08 VIS 10 km FEW 2000ft 5.8 2.7 1011.0
16-10 20:56 3 05 VIS 10 km FEW 2000ft 6.1 2.7 1011.1
16-10 20:26 2 04 VIS 10 km FEW 2000ft 5.6 3.1 1011.2
16-10 19:56 2 03 VIS 10 km FEW 2000ft 5.8 2.8 1011.2
16-10 19:26 0 00 VIS 10 km FEW 2000ft 6.3 3.4 1011.7
16-10 18:56 2 04 VIS 10 km FEW 2000ft 6.5 3.5 1011.8
16-10 18:26 3 05 VIS 10 km FEW 2000ft 6.7 3.9 1011.8
16-10 17:56 2 04 VIS 10 km FEW 2000ft 6.8 3.9 1011.7
16-10 17:26 3 06 VIS 10 km FEW 2000ft 6.2 3.8 1011.7
16-10 16:56 3 06 VIS 10 km FEW 2000ft 7.4 4.1 1011.7
16-10 16:26 3 05 VIS 10 km FEW 2000ft 7.9 4.3 1011.8
16-10 15:56 4 08 VIS 10 km FEW 2000ft 8.6 5.1 1012.1
16-10 15:26 5 09 VIS 10 km FEW 2000ft 8.9 5.1 1012.2

Met data is updated every half hour and is for information only.
* Visibility, weather and cloud values are updated during the airport’s service hours only.
Flight planning documentation is available on opmet.dmi.dk.
For meteorological abbreviations, click here